Location: La Brug�re
(44.4397°N, 4.1050°E)
Time: 00:39:02
(UTC+00:00)

Daily predictions for brighter satellites

Satellite Brightness Start Highest point End
(mag) Time Altitude Azimuth Time Altitude Azimuth Time Altitude Azimuth
SL-16 R/B 4.5 02:02:36 19° NNE 02:02:36 19° NNE 02:04:09 10° NNE
USA 267 4.2 02:07:45 10° NE 02:11:54 43° ENE 02:11:54 43° ENE
COSMOS 2455 4.3 02:27:14 33° E 02:27:14 33° E 02:31:39 10° NE
Cosmos 2322 Rocket 4.0 02:34:29 25° NNE 02:34:29 25° NNE 02:36:46 10° NNE
Cosmos 2360 Rocket 3.3 02:45:05 39° NE 02:45:05 39° NE 02:48:37 10° NNE
IDEFIX/ARIANE 42P 4.3 02:38:35 10° NE 02:43:02 27° E 02:44:01 26° ESE
USA 234 3.4 02:41:30 10° ESE 02:47:40 70° ENE 02:47:40 70° ENE
Cosmos 1844 Rocket 4.1 03:07:00 27° SE 03:07:00 27° SE 03:09:26 10° SSE
ATLAS 3B R/B 4.4 02:58:31 10° NNW 03:03:54 26° NNE 03:09:27 10° E
Cosmos 2251 Rocket 4.2 03:04:47 52° E 03:04:47 52° E 03:09:46 10° NNE
Cosmos 2098 Rocket 4.3 03:09:04 69° S 03:10:07 89° W 03:17:39 10° N
Cosmos 1709 Rocket 4.4 03:09:42 35° SSE 03:12:21 62° E 03:18:35 10° NNE
CENTAUR R/B 4.3 03:11:26 10° NNW 03:18:37 38° NE 03:26:27 10° ESE
Cosmos 2333 Rocket 3.0 03:17:32 34° SSE 03:19:24 47° ESE 03:24:50 10° NE
Cosmos 2278 Rocket 4.0 03:15:34 10° N 03:20:28 29° NE 03:25:21 10° ESE
ATLAS 2AS CENTAUR R/B 4.1 03:13:54 13° S 03:20:29 40° ESE 03:27:49 10° NE
Cosmos 1844 3.6 03:24:00 67° NNW 03:24:49 86° ENE 03:30:35 10° SSE
USA 238 DEB 4.1 03:19:19 18° NNW 03:24:52 67° NE 03:32:14 10° SE
USA 238 4.1 03:19:24 18° NNW 03:24:58 67° NE 03:32:20 10° SE
Meteor 2-21 Rocket 4.3 03:30:55 67° SW 03:31:41 78° W 03:37:56 10° N
SL-08 ROCKET BODY 4.2 03:33:01 68° WNW 03:33:01 68° WNW 03:38:44 10° N
Cosmos 2333 4.1 03:34:26 71° SSW 03:35:05 89° ESE 03:40:46 10° NNE
ADEOS 3.5 03:31:36 10° NNE 03:36:51 81° ESE 03:38:16 50° S
Meteor 2-14 Rocket 4.4 03:37:09 63° W 03:37:11 63° WNW 03:43:19 10° N
Cosmos 1745 Rocket 4.4 03:40:14 42° NW 03:40:14 42° NW 03:45:09 10° N
SL-16 R/B 3.8 03:44:30 20° NNW 03:44:30 20° NNW 03:47:29 10° N
BREEZE-M R/B 3.5 03:42:48 67° WNW 03:43:26 76° NNW 03:52:25 10° ENE
Cosmos 2322 3.6 03:44:04 63° W 03:44:30 66° WNW 03:50:14 10° NNE
Cosmos 1378 4.1 03:46:03 41° NNE 03:46:03 41° NNE 03:48:35 10° NNE
ADEOS II 4.0 03:41:31 10° NNW 03:42:57 16° NNW 03:42:57 16° NNW
NOSS 3-2 (A) 4.1 03:44:12 10° NW 03:51:46 82° NE 04:00:12 10° SE
Cosmos 2181 Rocket 3.9 03:47:14 10° N 03:53:40 87° W 03:59:57 10° S
H-2A R/B 2.5 03:50:42 10° NNE 03:54:49 76° ESE 03:56:28 36° S
Cosmos 2219 Rocket 2.1 03:53:56 36° SSW 03:56:22 90° NW 04:02:00 10° NNE
NOSS 2-2 (E) 3.2 03:56:51 72° N 03:56:51 72° N 04:00:45 10° NE
USA 267 3.8 03:50:57 10° NE 03:57:02 43° NNW 03:59:15 33° WNW
Meteor 2-16 Rocket 4.4 03:55:17 40° SW 03:57:16 59° WNW 04:03:18 10° N
COSMOS 2441 4.5 03:53:55 10° NNE 03:58:51 77° ESE 04:03:44 10° S
Cosmos 2237 Rocket 3.5 03:56:41 10° S 04:01:55 40° ESE 04:07:12 10° NE
PSLV R/B 3.7 04:00:59 10° N 04:04:42 49° NW 04:04:42 49° NW
ERBS 3.6 04:06:24 30° SSE 04:07:15 36° SE 04:10:24 10° ENE
Cosmos 1025 Rocket 2.9 04:05:35 18° S 04:08:41 89° WNW 04:12:58 10° N
Meteor 1-31 Rocket 3.5 04:06:01 10° NNE 04:09:45 51° E 04:13:26 10° S
COSMOS 2428 2.6 04:07:23 30° SW 04:10:15 72° WNW 04:15:56 10° NNE
COSMOS 2455 3.2 04:10:25 37° W 04:12:04 45° NW 04:17:52 10° NNE
NOSS 3-2 (C) 4.2 04:06:06 10° NW 04:13:40 78° NE 04:22:06 10° SE
Cosmos 2322 Rocket 4.0 04:16:19 15° NW 04:16:19 15° NW 04:19:21 10° N
Cosmos 1470 3.0 04:14:16 10° N 04:18:12 69° E 04:22:04 10° SSE
Cosmos 1980 4.3 04:12:44 10° S 04:18:15 59° ESE 04:23:49 10° NNE
CZ-2C R/B 2.6 04:13:10 10° NNE 04:18:24 83° ESE 04:23:35 10° SSW
Cosmos 389 Rocket 3.8 04:17:19 10° SSE 04:20:33 40° E 04:23:48 10° NNE
Cosmos 1536 Rocket 3.5 04:18:24 26° SSW 04:20:37 57° W 04:24:54 10° N
Cosmos 921 Rocket 2.9 04:16:45 10° NNW 04:21:07 89° WSW 04:25:20 10° SSE
Cosmos 1733 3.3 04:17:31 10° NNW 04:21:15 48° W 04:24:57 10° SSW
Cosmos 1842 3.4 04:21:09 45° WSW 04:21:37 47° WNW 04:25:28 10° N
IDEFIX/ARIANE 42P 3.0 04:17:50 10° N 04:22:44 41° WNW 04:24:49 28° WSW
Cosmos 1707 3.6 04:20:02 10° S 04:23:50 53° E 04:27:40 10° NNE
Cosmos 1484 Rocket 4.4 04:23:53 10° NNE 04:27:23 35° E 04:30:54 10° SSE
Cosmos 2360 Rocket 3.5 04:26:53 21° WNW 04:27:33 22° NW 04:31:51 10° N
NOSS 3-4 (A) 3.8 04:24:38 10° SSW 04:30:33 64° ESE 04:36:48 10° NE
NOSS 3-4 (C) 3.8 04:24:43 10° SSW 04:30:38 64° ESE 04:36:54 10° NE
USA 234 3.8 04:25:22 10° SSE 04:31:19 37° SW 04:35:02 21° WNW
NOSS 2-2 (D) 3.7 04:33:18 33° W 04:34:22 42° NW 04:38:22 10° NNE
GP-B 4.3 04:31:15 10° SSE 04:35:28 45° E 04:39:42 10° N
PAYLOAD A 4.0 04:33:01 10° N 04:37:41 53° WNW 04:42:28 10° SSW
Cosmos 1140 Rocket 4.2 04:33:07 10° S 04:38:11 55° ESE 04:43:14 10° NNE
ALOS 4.1 04:38:55 10° NNE 04:43:11 34° E 04:47:24 10° SSE
CZ-4B R/B 2.8 04:42:13 10° N 04:46:18 60° WNW 04:50:08 10° SSW
Fregat R/B Cluster 11 4.2 04:44:02 15° SW 04:46:28 80° NW 04:54:59 10° NE
Cosmos 1844 Rocket 4.3 04:48:52 14° WSW 04:48:52 14° WSW 04:50:24 10° SW
Cosmos 614 Rocket 3.9 04:42:24 10° SSW 04:47:38 85° WNW 04:52:53 10° NNE
Cosmos 2154 Rocket 4.1 04:41:47 10° S 04:47:57 80° E 04:54:11 10° N
Aureole 1 Rocket 4.3 04:43:38 11° SW 04:49:29 37° WNW 04:54:19 10° N
Cosmos 2327 Rocket 4.4 04:45:40 10° S 04:51:56 79° W 04:58:09 10° N
SL-16 R/B 3.7 04:47:38 10° S 04:52:51 39° ESE 04:58:05 10° NE
Cosmos 1606 Rocket 3.5 04:49:35 10° N 04:53:56 88° E 04:58:14 10° S
ATLAS 3B R/B 2.7 04:48:44 10° NW 04:55:28 88° NE 05:02:22 10° SE
Cosmos 2184 Rocket 4.1 04:52:07 10° SSW 04:58:09 55° WNW 05:04:19 10° N
Cosmos 292 Rocket 4.0 04:53:36 10° NNW 04:58:10 45° WSW 05:02:44 10° S
Okean 1-7 Rocket 4.1 04:54:10 10° S 04:58:32 64° E 05:02:59 10° NNE
Cosmos 1610 Rocket 4.5 04:53:03 10° SSW 04:59:18 78° W 05:05:41 10° N
MSX 4.5 04:55:52 10° N 05:00:53 33° WNW 05:05:54 10° SW
Cosmos 44 2.9 04:58:33 10° NW 05:02:55 70° WSW 05:07:11 10° SSE
Cosmos 2333 Rocket 3.1 04:59:36 13° WSW 05:03:52 30° NW 05:08:52 10° N
Cosmos 1943 Rocket 4.5 04:59:32 10° N 05:03:53 22° NE 05:08:13 10° E
Cosmos 2278 Rocket 2.4 04:59:20 10° NW 05:04:48 49° WSW 05:10:14 10° S
Cosmos 1726 3.0 05:01:40 10° N 05:05:16 52° E 05:08:50 10° SSE
FENGYUN 3A 4.5 05:01:02 10° NNE 05:06:24 57° E 05:11:44 10° S
Helios 1A Rocket 3.4 05:02:36 10° NNE 05:06:46 68° ESE 05:10:53 10° S
Cosmos 2341 Rocket 4.4 05:02:35 10° S 05:08:48 69° E 05:15:00 10° NNE
NOSS 3 (A) 4.4 05:06:37 10° SW 05:09:14 57° NW 05:12:13 10° NNE
CENTAUR R/B 3.2 05:01:59 10° NW 05:10:03 74° WSW 05:18:44 10° SSE
Nadezhda 3 Rocket 4.0 05:03:56 10° NNW 05:10:17 71° W 05:16:35 10° S
ATLAS 2AS CENTAUR R/B 3.2 05:03:25 10° SW 05:11:18 59° NW 05:19:15 10° NNE
PSLV R/B 3.8 05:08:00 10° N 05:11:37 49° WNW 05:15:12 10° SSW
Cosmos 1953 2.6 05:08:11 10° NNW 05:12:04 46° W 05:15:54 10° SSW
Cosmos 1437 Rocket 3.5 05:09:06 10° S 05:12:48 56° E 05:16:32 10° NNE
Cosmos 676 Rocket 4.1 05:08:24 10° SSW 05:13:42 88° ESE 05:19:00 10° NNE
Cosmos 1023 Rocket 4.4 05:08:34 10° SSW 05:13:44 72° WNW 05:18:54 10° NNE
MOS 1-B 4.3 05:09:33 10° NNE 05:15:22 74° WNW 05:21:09 10° SSW
COSMO-SKYMED 1 2.6 05:13:03 10° S 05:17:19 57° W 05:21:37 10° NNW
Cosmos 1758 4.4 05:14:49 10° NW 05:17:59 23° W 05:21:08 10° SW
Meteor 1-4 Rocket 2.9 05:19:55 10° SSW 05:23:16 40° WNW 05:26:36 10° N
Cosmos 1190 Rocket 4.3 05:19:17 10° SW 05:24:22 47° WNW 05:29:29 10° N
SeaSat 1 3.5 05:20:04 10° NE 05:24:53 51° ESE 05:29:40 10° S
METEOR-M 4.2 05:19:47 10° NNE 05:25:10 87° ESE 05:30:30 10° SSW
USA 116 3.6 05:22:24 10° S 05:26:25 65° WSW 05:30:00 10° NNW
SJ-12 4.0 05:23:17 10° N 05:27:18 59° WNW 05:31:20 10° SSW
Cosmos 407 Rocket 4.0 05:23:36 10° SW 05:28:23 38° WNW 05:33:10 10° N
H-2A R/B 4.4 05:28:21 10° NW 05:29:47 12° WNW 05:31:13 10° W
Okean O Rocket 1.6 05:27:57 10° N 05:32:23 76° WNW 05:36:45 10° SSW
KORONAS-FOTON 4.2 05:28:47 10° S 05:32:31 67° E 05:36:17 10° NNE
RESURS DK-1 2.5 05:28:47 10° SSW 05:32:54 80° ESE 05:37:04 10° NNE
Cosmos 1726 Rocket 4.0 05:31:55 10° NNW 05:35:58 40° W 05:39:59 10° SSW
BREEZE-M DEB (TANK) 3.2 05:32:50 10° WSW 05:37:49 60° SSE 05:40:30 10° E
